Year,Month,Day,Hour,Minute,Value (Times are PST for temperature in C)
2009,06,02,00,00,15.50
2009,06,02,00,01,15.50
2009,06,02,00,02,15.50
2009,06,02,00,03,15.50
2009,06,02,00,04,15.50
2009,06,02,00,05,15.50
2009,06,02,00,06,15.40
2009,06,02,00,07,15.30
2009,06,02,00,08,15.30
2009,06,02,00,09,15.30
2009,06,02,00,10,15.30
2009,06,02,00,11,15.30
2009,06,02,00,12,15.30
2009,06,02,00,13,15.30
2009,06,02,00,14,15.30
2009,06,02,00,15,15.30
2009,06,02,00,16,15.20
2009,06,02,00,17,15.10
2009,06,02,00,18,15.10
2009,06,02,00,19,15.00
2009,06,02,00,20,15.00
2009,06,02,00,21,15.00
2009,06,02,00,22,15.00
2009,06,02,00,23,14.90
2009,06,02,00,24,14.90
2009,06,02,00,25,14.90
2009,06,02,00,26,14.90
2009,06,02,00,27,14.90
2009,06,02,00,28,14.90
2009,06,02,00,29,14.90
2009,06,02,00,30,14.90
2009,06,02,00,31,14.90
2009,06,02,00,32,14.90
2009,06,02,00,33,14.90
2009,06,02,00,34,14.80
2009,06,02,00,35,14.80
2009,06,02,00,36,14.70
2009,06,02,00,37,14.60
2009,06,02,00,38,14.50
2009,06,02,00,39,14.40
2009,06,02,00,40,14.40
2009,06,02,00,41,14.30
2009,06,02,00,42,14.30
2009,06,02,00,43,14.30
2009,06,02,00,44,14.30
2009,06,02,00,45,14.30
2009,06,02,00,46,14.30
2009,06,02,00,47,14.30
2009,06,02,00,48,14.30
2009,06,02,00,49,14.30
2009,06,02,00,50,14.30
2009,06,02,00,51,14.40
2009,06,02,00,52,14.40
2009,06,02,00,53,14.40
2009,06,02,00,54,14.50
2009,06,02,00,55,14.50
2009,06,02,00,56,14.50
2009,06,02,00,57,14.50
2009,06,02,00,58,14.50
2009,06,02,00,59,14.60
2009,06,02,01,00,14.60
2009,06,02,01,01,14.60
2009,06,02,01,02,14.60
2009,06,02,01,03,14.60
2009,06,02,01,04,14.70
2009,06,02,01,05,14.70
2009,06,02,01,06,14.70
2009,06,02,01,07,14.70
2009,06,02,01,08,14.70
2009,06,02,01,09,14.70
2009,06,02,01,10,14.70
2009,06,02,01,11,14.80
2009,06,02,01,12,14.80
2009,06,02,01,13,14.80
2009,06,02,01,14,14.80
2009,06,02,01,15,14.80
2009,06,02,01,16,14.70
2009,06,02,01,17,14.70
2009,06,02,01,18,14.70
2009,06,02,01,19,14.70
2009,06,02,01,20,14.70
2009,06,02,01,21,14.60
2009,06,02,01,22,14.60
2009,06,02,01,23,14.60
2009,06,02,01,24,14.60
2009,06,02,01,25,14.60
2009,06,02,01,26,14.50
2009,06,02,01,27,14.50
2009,06,02,01,28,14.50
2009,06,02,01,29,14.50
2009,06,02,01,30,14.50
2009,06,02,01,31,14.50
2009,06,02,01,32,14.50
2009,06,02,01,33,14.50
2009,06,02,01,34,14.50
2009,06,02,01,35,14.50
2009,06,02,01,36,14.50
2009,06,02,01,37,14.60
2009,06,02,01,38,14.60
2009,06,02,01,39,14.60
2009,06,02,01,40,14.60
2009,06,02,01,41,14.60
2009,06,02,01,42,14.60
2009,06,02,01,43,14.60
2009,06,02,01,44,14.60
2009,06,02,01,45,14.50
2009,06,02,01,46,14.50
2009,06,02,01,47,14.50
2009,06,02,01,48,14.50
2009,06,02,01,49,14.60
2009,06,02,01,50,14.60
2009,06,02,01,51,14.60
2009,06,02,01,52,14.60
2009,06,02,01,53,14.70
2009,06,02,01,54,14.70
2009,06,02,01,55,14.70
2009,06,02,01,56,14.70
2009,06,02,01,57,14.70
2009,06,02,01,58,14.70
2009,06,02,01,59,14.80
2009,06,02,02,00,14.80
2009,06,02,02,01,14.80
2009,06,02,02,02,14.80
2009,06,02,02,03,14.80
2009,06,02,02,04,14.80
2009,06,02,02,05,14.80
2009,06,02,02,06,14.80
2009,06,02,02,07,14.80
2009,06,02,02,08,14.80
2009,06,02,02,09,14.80
2009,06,02,02,10,14.90
2009,06,02,02,11,14.90
2009,06,02,02,12,14.90
2009,06,02,02,13,14.90
2009,06,02,02,14,14.90
2009,06,02,02,15,14.90
2009,06,02,02,16,14.90
2009,06,02,02,17,14.90
2009,06,02,02,18,14.90
2009,06,02,02,19,14.90
2009,06,02,02,20,14.90
2009,06,02,02,21,14.90
2009,06,02,02,22,15.00
2009,06,02,02,23,15.00
2009,06,02,02,24,15.00
2009,06,02,02,25,15.00
2009,06,02,02,26,15.00
2009,06,02,02,27,15.00
2009,06,02,02,28,15.00
2009,06,02,02,29,15.00
2009,06,02,02,30,15.00
2009,06,02,02,31,15.00
2009,06,02,02,32,15.00
2009,06,02,02,33,15.10
2009,06,02,02,34,15.10
2009,06,02,02,35,15.10
2009,06,02,02,36,15.10
2009,06,02,02,37,15.10
2009,06,02,02,38,15.10
2009,06,02,02,39,15.10
2009,06,02,02,40,15.10
2009,06,02,02,41,15.20
2009,06,02,02,42,15.20
2009,06,02,02,43,15.20
2009,06,02,02,44,15.30
2009,06,02,02,45,15.30
2009,06,02,02,46,15.30
2009,06,02,02,47,15.30
2009,06,02,02,48,15.30
2009,06,02,02,49,15.30
2009,06,02,02,50,15.30
2009,06,02,02,51,15.30
2009,06,02,02,52,15.30
2009,06,02,02,53,15.20
2009,06,02,02,54,15.20
2009,06,02,02,55,15.20
2009,06,02,02,56,15.10
2009,06,02,02,57,15.10
2009,06,02,02,58,15.00
2009,06,02,02,59,15.00
2009,06,02,03,00,14.90
2009,06,02,03,01,14.90
2009,06,02,03,02,14.80
2009,06,02,03,03,14.80
2009,06,02,03,04,14.70
2009,06,02,03,05,14.60
2009,06,02,03,06,14.50
2009,06,02,03,07,14.40
2009,06,02,03,08,14.30
2009,06,02,03,09,14.20
2009,06,02,03,10,14.10
2009,06,02,03,11,14.00
2009,06,02,03,12,13.90
2009,06,02,03,13,13.80
2009,06,02,03,14,13.70
2009,06,02,03,15,13.70
2009,06,02,03,16,13.70
2009,06,02,03,17,13.60
2009,06,02,03,18,13.60
2009,06,02,03,19,13.50
2009,06,02,03,20,13.50
2009,06,02,03,21,13.40
2009,06,02,03,22,13.40
2009,06,02,03,23,13.40
2009,06,02,03,24,13.30
2009,06,02,03,25,13.30
2009,06,02,03,26,13.30
2009,06,02,03,27,13.30
2009,06,02,03,28,13.30
2009,06,02,03,29,13.20
2009,06,02,03,30,13.20
2009,06,02,03,31,13.10
2009,06,02,03,32,13.10
2009,06,02,03,33,13.00
2009,06,02,03,34,13.00
2009,06,02,03,35,12.90
2009,06,02,03,36,12.90
2009,06,02,03,37,12.80
2009,06,02,03,38,12.70
2009,06,02,03,39,12.60
2009,06,02,03,40,12.50
2009,06,02,03,41,12.50
2009,06,02,03,42,12.40
2009,06,02,03,43,12.30
2009,06,02,03,44,12.30
2009,06,02,03,45,12.20
2009,06,02,03,46,12.10
2009,06,02,03,47,12.10
2009,06,02,03,48,12.00
2009,06,02,03,49,12.00
2009,06,02,03,50,11.90
2009,06,02,03,51,11.90
2009,06,02,03,52,11.90
2009,06,02,03,53,11.90
2009,06,02,03,54,11.90
2009,06,02,03,55,11.90
2009,06,02,03,56,11.80
2009,06,02,03,57,11.80
2009,06,02,03,58,11.80
2009,06,02,03,59,11.80
2009,06,02,04,00,11.80
2009,06,02,04,01,11.80
2009,06,02,04,02,11.80
2009,06,02,04,03,11.80
2009,06,02,04,04,11.80
2009,06,02,04,05,11.80
2009,06,02,04,06,11.80
2009,06,02,04,07,11.80
2009,06,02,04,08,11.80
2009,06,02,04,09,11.70
2009,06,02,04,10,11.70
2009,06,02,04,11,11.70
2009,06,02,04,12,11.70
2009,06,02,04,13,11.70
2009,06,02,04,14,11.70
2009,06,02,04,15,11.70
2009,06,02,04,16,11.60
2009,06,02,04,17,11.60
2009,06,02,04,18,11.60
2009,06,02,04,19,11.60
2009,06,02,04,20,11.60
2009,06,02,04,21,11.60
2009,06,02,04,22,11.60
2009,06,02,04,23,11.60
2009,06,02,04,24,11.60
2009,06,02,04,25,11.60
2009,06,02,04,26,11.50
2009,06,02,04,27,11.40
2009,06,02,04,28,11.40
2009,06,02,04,29,11.40
2009,06,02,04,30,11.40
2009,06,02,04,31,11.40
2009,06,02,04,32,11.40
2009,06,02,04,33,11.40
2009,06,02,04,34,11.40
2009,06,02,04,35,11.40
2009,06,02,04,36,11.40
2009,06,02,04,37,11.40
2009,06,02,04,38,11.40
2009,06,02,04,39,11.40
2009,06,02,04,40,11.40
2009,06,02,04,41,11.40
2009,06,02,04,42,11.40
2009,06,02,04,43,11.50
2009,06,02,04,44,11.60
2009,06,02,04,45,11.60
2009,06,02,04,46,11.60
2009,06,02,04,47,11.60
2009,06,02,04,48,11.60
2009,06,02,04,49,11.60
2009,06,02,04,50,11.60
2009,06,02,04,51,11.60
2009,06,02,04,52,11.60
2009,06,02,04,53,11.60
2009,06,02,04,54,11.60
2009,06,02,04,55,11.60
2009,06,02,04,56,11.70
2009,06,02,04,57,11.70
2009,06,02,04,58,11.70
2009,06,02,04,59,11.80
2009,06,02,05,00,11.80
2009,06,02,05,01,11.80
2009,06,02,05,02,11.80
2009,06,02,05,03,11.80
2009,06,02,05,04,11.90
2009,06,02,05,05,11.90
2009,06,02,05,06,11.90
2009,06,02,05,07,12.00
2009,06,02,05,08,12.00
2009,06,02,05,09,12.00
2009,06,02,05,10,12.00
2009,06,02,05,11,12.00
2009,06,02,05,12,12.10
2009,06,02,05,13,12.10
2009,06,02,05,14,12.10
2009,06,02,05,15,12.10
2009,06,02,05,16,12.10
2009,06,02,05,17,12.10
2009,06,02,05,18,12.20
2009,06,02,05,19,12.20
2009,06,02,05,20,12.10
2009,06,02,05,21,12.10
2009,06,02,05,22,12.10
2009,06,02,05,23,12.10
2009,06,02,05,24,12.10
2009,06,02,05,25,12.10
2009,06,02,05,26,12.10
2009,06,02,05,27,12.10
2009,06,02,05,28,12.10
2009,06,02,05,29,12.10
2009,06,02,05,30,12.10
2009,06,02,05,31,12.10
2009,06,02,05,32,12.10
2009,06,02,05,33,12.10
2009,06,02,05,34,12.10
2009,06,02,05,35,12.10
2009,06,02,05,36,12.10
2009,06,02,05,37,12.10
2009,06,02,05,38,12.10
2009,06,02,05,39,12.10
2009,06,02,05,40,12.20
2009,06,02,05,41,12.20
2009,06,02,05,42,12.20
2009,06,02,05,43,12.20
2009,06,02,05,44,12.20
2009,06,02,05,45,12.20
2009,06,02,05,46,12.30
2009,06,02,05,47,12.30
2009,06,02,05,48,12.30
2009,06,02,05,49,12.30
2009,06,02,05,50,12.30
2009,06,02,05,51,12.30
2009,06,02,05,52,12.30
2009,06,02,05,53,12.30
2009,06,02,05,54,12.40
2009,06,02,05,55,12.40
2009,06,02,05,56,12.40
2009,06,02,05,57,12.40
2009,06,02,05,58,12.50
2009,06,02,05,59,12.50
2009,06,02,06,00,12.50
2009,06,02,06,01,12.50
2009,06,02,06,02,12.50
2009,06,02,06,03,12.50
2009,06,02,06,04,12.60
2009,06,02,06,05,12.60
2009,06,02,06,06,12.60
2009,06,02,06,07,12.60
2009,06,02,06,08,12.60
2009,06,02,06,09,12.70
2009,06,02,06,10,12.70
2009,06,02,06,11,12.70
2009,06,02,06,12,12.70
2009,06,02,06,13,12.80
2009,06,02,06,14,12.80
2009,06,02,06,15,12.80
2009,06,02,06,16,12.80
2009,06,02,06,17,12.80
2009,06,02,06,18,12.90
2009,06,02,06,19,12.90
2009,06,02,06,20,12.90
2009,06,02,06,21,13.00
2009,06,02,06,22,13.00
2009,06,02,06,23,13.00
2009,06,02,06,24,13.10
2009,06,02,06,25,13.10
2009,06,02,06,26,13.10
2009,06,02,06,27,13.20
2009,06,02,06,28,13.20
2009,06,02,06,29,13.20
2009,06,02,06,30,13.20
2009,06,02,06,31,13.30
2009,06,02,06,32,13.30
2009,06,02,06,33,13.30
2009,06,02,06,34,13.30
2009,06,02,06,35,13.30
2009,06,02,06,36,13.30
2009,06,02,06,37,13.30
2009,06,02,06,38,13.30
2009,06,02,06,39,13.30
2009,06,02,06,40,13.30
2009,06,02,06,41,13.30
2009,06,02,06,42,13.30
2009,06,02,06,43,13.30
2009,06,02,06,44,13.30
2009,06,02,06,45,13.30
2009,06,02,06,46,13.30
2009,06,02,06,47,13.30
2009,06,02,06,48,13.30
2009,06,02,06,49,13.30
2009,06,02,06,50,13.30
2009,06,02,06,51,13.30
2009,06,02,06,52,13.30
2009,06,02,06,53,13.30
2009,06,02,06,54,13.30
2009,06,02,06,55,13.30
2009,06,02,06,56,13.30
2009,06,02,06,57,13.30
2009,06,02,06,58,13.30
2009,06,02,06,59,13.30
2009,06,02,07,00,13.30
2009,06,02,07,01,13.30
2009,06,02,07,02,13.30
2009,06,02,07,03,13.30
2009,06,02,07,04,13.30
2009,06,02,07,05,13.30
2009,06,02,07,06,13.30
2009,06,02,07,07,13.30
2009,06,02,07,08,13.40
2009,06,02,07,09,13.40
2009,06,02,07,10,13.40
2009,06,02,07,11,13.50
2009,06,02,07,12,13.50
2009,06,02,07,13,13.50
2009,06,02,07,14,13.50
2009,06,02,07,15,13.60
2009,06,02,07,16,13.60
2009,06,02,07,17,13.60
2009,06,02,07,18,13.60
2009,06,02,07,19,13.60
2009,06,02,07,20,13.70
2009,06,02,07,21,13.70
2009,06,02,07,22,13.70
2009,06,02,07,23,13.70
2009,06,02,07,24,13.80
2009,06,02,07,25,13.80
2009,06,02,07,26,13.90
2009,06,02,07,27,13.90
2009,06,02,07,28,14.00
2009,06,02,07,29,14.00
2009,06,02,07,30,14.10
2009,06,02,07,31,14.10
2009,06,02,07,32,14.20
2009,06,02,07,33,14.20
2009,06,02,07,34,14.20
2009,06,02,07,35,14.30
2009,06,02,07,36,14.40
2009,06,02,07,37,14.40
2009,06,02,07,38,14.50
2009,06,02,07,39,14.50
2009,06,02,07,40,14.60
2009,06,02,07,41,14.60
2009,06,02,07,42,14.70
2009,06,02,07,43,14.80
2009,06,02,07,44,14.80
2009,06,02,07,45,14.80
2009,06,02,07,46,14.80
2009,06,02,07,47,14.90
2009,06,02,07,48,15.00
2009,06,02,07,49,15.10
2009,06,02,07,50,15.10
2009,06,02,07,51,15.20
2009,06,02,07,52,15.20
2009,06,02,07,53,15.20
2009,06,02,07,54,15.30
2009,06,02,07,55,15.30
2009,06,02,07,56,15.30
2009,06,02,07,57,15.30
2009,06,02,07,58,15.30
2009,06,02,07,59,15.40
2009,06,02,08,00,15.40
2009,06,02,08,01,15.50
2009,06,02,08,02,15.50
2009,06,02,08,03,15.60
2009,06,02,08,04,15.60
2009,06,02,08,05,15.60
2009,06,02,08,06,15.70
2009,06,02,08,07,15.70
2009,06,02,08,08,15.60
2009,06,02,08,09,15.60
2009,06,02,08,10,15.60
2009,06,02,08,11,15.60
2009,06,02,08,12,15.60
2009,06,02,08,13,15.60
2009,06,02,08,14,15.60
2009,06,02,08,15,15.70
2009,06,02,08,16,15.60
2009,06,02,08,17,15.60
2009,06,02,08,18,15.60
2009,06,02,08,19,15.70
2009,06,02,08,20,15.70
2009,06,02,08,21,15.70
2009,06,02,08,22,15.70
2009,06,02,08,23,15.70
2009,06,02,08,24,15.70
2009,06,02,08,25,15.70
2009,06,02,08,26,15.70
2009,06,02,08,27,15.70
2009,06,02,08,28,15.80
2009,06,02,08,29,15.80
2009,06,02,08,30,15.80
2009,06,02,08,31,15.80
2009,06,02,08,32,15.80
2009,06,02,08,33,15.80
2009,06,02,08,34,15.80
2009,06,02,08,35,15.80
2009,06,02,08,36,15.90
2009,06,02,08,37,15.90
2009,06,02,08,38,16.00
2009,06,02,08,39,16.10
2009,06,02,08,40,16.10
2009,06,02,08,41,16.10
2009,06,02,08,42,16.20
2009,06,02,08,43,16.20
2009,06,02,08,44,16.30
2009,06,02,08,45,16.30
2009,06,02,08,46,16.30
2009,06,02,08,47,16.40
2009,06,02,08,48,16.40
2009,06,02,08,49,16.50
2009,06,02,08,50,16.60
2009,06,02,08,51,16.70
2009,06,02,08,52,16.80
2009,06,02,08,53,16.90
2009,06,02,08,54,16.90
2009,06,02,08,55,17.00
2009,06,02,08,56,17.10
2009,06,02,08,57,17.20
2009,06,02,08,58,17.30
2009,06,02,08,59,17.40
2009,06,02,09,00,17.50
2009,06,02,09,01,17.50
2009,06,02,09,02,17.70
2009,06,02,09,03,17.80
2009,06,02,09,04,17.90
2009,06,02,09,05,18.00
2009,06,02,09,06,18.10
2009,06,02,09,07,18.20
2009,06,02,09,08,18.30
2009,06,02,09,09,18.30
2009,06,02,09,10,18.40
2009,06,02,09,11,18.50
2009,06,02,09,12,18.60
2009,06,02,09,13,18.60
2009,06,02,09,14,18.70
2009,06,02,09,15,18.80
2009,06,02,09,16,18.90
2009,06,02,09,17,18.90
2009,06,02,09,18,19.00
2009,06,02,09,19,19.10
2009,06,02,09,20,19.20
2009,06,02,09,21,19.30
2009,06,02,09,22,19.40
2009,06,02,09,23,19.50
2009,06,02,09,24,19.60
2009,06,02,09,25,19.70
2009,06,02,09,26,19.70
2009,06,02,09,27,19.90
2009,06,02,09,28,19.90
2009,06,02,09,29,20.00
2009,06,02,09,30,20.10
2009,06,02,09,31,20.20
2009,06,02,09,32,20.20
2009,06,02,09,33,20.30
2009,06,02,09,34,20.40
2009,06,02,09,35,20.40
2009,06,02,09,36,20.50
2009,06,02,09,37,20.60
2009,06,02,09,38,20.70
2009,06,02,09,39,20.70
2009,06,02,09,40,20.80
2009,06,02,09,41,20.90
2009,06,02,09,42,21.00
2009,06,02,09,43,21.00
2009,06,02,09,44,21.20
2009,06,02,09,45,21.30
2009,06,02,09,46,21.30
2009,06,02,09,47,21.30
2009,06,02,09,48,21.40
2009,06,02,09,49,21.40
2009,06,02,09,50,21.40
2009,06,02,09,51,21.50
2009,06,02,09,52,21.60
2009,06,02,09,53,21.60
2009,06,02,09,54,21.70
2009,06,02,09,55,21.70
2009,06,02,09,56,21.80
2009,06,02,09,57,21.90
2009,06,02,09,58,21.90
2009,06,02,09,59,22.00
2009,06,02,10,00,22.10
2009,06,02,10,01,22.20
2009,06,02,10,02,22.20
2009,06,02,10,03,22.30
2009,06,02,10,04,22.30
2009,06,02,10,05,22.40
2009,06,02,10,06,22.40
2009,06,02,10,07,22.50
2009,06,02,10,08,22.50
2009,06,02,10,09,22.60
2009,06,02,10,10,22.60
2009,06,02,10,11,22.60
2009,06,02,10,12,22.60
2009,06,02,10,13,22.60
2009,06,02,10,14,22.60
2009,06,02,10,15,22.60
2009,06,02,10,16,22.60
2009,06,02,10,17,22.60
2009,06,02,10,18,22.70
2009,06,02,10,19,22.70
2009,06,02,10,20,22.70
2009,06,02,10,21,22.80
2009,06,02,10,22,22.80
2009,06,02,10,23,22.90
2009,06,02,10,24,22.90
2009,06,02,10,25,22.90
2009,06,02,10,26,22.90
2009,06,02,10,27,22.80
2009,06,02,10,28,22.80
2009,06,02,10,29,22.90
2009,06,02,10,30,22.90
2009,06,02,10,31,23.00
2009,06,02,10,32,23.10
2009,06,02,10,33,23.20
2009,06,02,10,34,23.20
2009,06,02,10,35,23.30
2009,06,02,10,36,23.30
2009,06,02,10,37,23.30
2009,06,02,10,38,23.30
2009,06,02,10,39,23.30
2009,06,02,10,40,23.30
2009,06,02,10,41,23.30
2009,06,02,10,42,23.30
2009,06,02,10,43,23.30
2009,06,02,10,44,23.30
2009,06,02,10,45,23.30
2009,06,02,10,46,23.30
2009,06,02,10,47,23.30
2009,06,02,10,48,23.20
2009,06,02,10,49,23.20
2009,06,02,10,50,23.20
2009,06,02,10,51,23.10
2009,06,02,10,52,23.10
2009,06,02,10,53,23.10
2009,06,02,10,54,23.20
2009,06,02,10,55,23.20
2009,06,02,10,56,23.20
2009,06,02,10,57,23.30
2009,06,02,10,58,23.30
2009,06,02,10,59,23.30
2009,06,02,11,00,23.30
2009,06,02,11,01,23.40
2009,06,02,11,02,23.50
2009,06,02,11,03,23.60
2009,06,02,11,04,23.70
2009,06,02,11,05,23.70
2009,06,02,11,06,23.70
2009,06,02,11,07,23.80
2009,06,02,11,08,23.80
2009,06,02,11,09,23.80
2009,06,02,11,10,23.90
2009,06,02,11,11,23.90
2009,06,02,11,12,23.90
2009,06,02,11,13,23.90
2009,06,02,11,14,23.90
2009,06,02,11,15,23.90
2009,06,02,11,16,23.90
2009,06,02,11,17,23.90
2009,06,02,11,18,23.90
2009,06,02,11,19,23.80
2009,06,02,11,20,23.80
2009,06,02,11,21,23.70
2009,06,02,11,22,23.70
2009,06,02,11,23,23.70
2009,06,02,11,24,23.70
2009,06,02,11,25,23.70
2009,06,02,11,26,23.70
2009,06,02,11,27,23.70
2009,06,02,11,28,23.70
2009,06,02,11,29,23.70
2009,06,02,11,30,23.80
2009,06,02,11,31,23.80
2009,06,02,11,32,23.90
2009,06,02,11,33,24.10
2009,06,02,11,34,24.10
2009,06,02,11,35,24.20
2009,06,02,11,36,24.30
2009,06,02,11,37,24.40
2009,06,02,11,38,24.50
2009,06,02,11,39,24.50
2009,06,02,11,40,24.60
2009,06,02,11,41,24.70
2009,06,02,11,42,24.80
2009,06,02,11,43,24.90
2009,06,02,11,44,25.00
2009,06,02,11,45,25.20
2009,06,02,11,46,25.30
2009,06,02,11,47,25.40
2009,06,02,11,48,25.50
2009,06,02,11,49,25.60
2009,06,02,11,50,25.70
2009,06,02,11,51,25.80
2009,06,02,11,52,25.90
2009,06,02,11,53,26.00
2009,06,02,11,54,26.10
2009,06,02,11,55,26.20
2009,06,02,11,56,26.30
2009,06,02,11,57,26.40
2009,06,02,11,58,26.50
2009,06,02,11,59,26.60
2009,06,02,12,00,26.60
2009,06,02,12,01,26.60
2009,06,02,12,02,26.60
2009,06,02,12,03,26.70
2009,06,02,12,04,26.80
2009,06,02,12,05,26.80
2009,06,02,12,06,26.90
2009,06,02,12,07,27.00
2009,06,02,12,08,27.10
2009,06,02,12,09,27.10
2009,06,02,12,10,27.20
2009,06,02,12,11,27.20
2009,06,02,12,12,27.20
2009,06,02,12,13,27.20
2009,06,02,12,14,27.20
2009,06,02,12,15,27.20
2009,06,02,12,16,27.20
2009,06,02,12,17,27.20
2009,06,02,12,18,27.20
2009,06,02,12,19,27.30
2009,06,02,12,20,27.30
2009,06,02,12,21,27.30
2009,06,02,12,22,27.30
2009,06,02,12,23,27.20
2009,06,02,12,24,27.10
2009,06,02,12,25,27.10
2009,06,02,12,26,27.00
2009,06,02,12,27,26.90
2009,06,02,12,28,26.90
2009,06,02,12,29,27.00
2009,06,02,12,30,27.10
2009,06,02,12,31,27.10
2009,06,02,12,32,27.10
2009,06,02,12,33,27.10
2009,06,02,12,34,27.20
2009,06,02,12,35,27.20
2009,06,02,12,36,27.20
2009,06,02,12,37,27.20
2009,06,02,12,38,27.20
2009,06,02,12,39,27.20
2009,06,02,12,40,27.20
2009,06,02,12,41,27.20
2009,06,02,12,42,27.20
2009,06,02,12,43,27.20
2009,06,02,12,44,27.20
2009,06,02,12,45,27.20
2009,06,02,12,46,27.20
2009,06,02,12,47,27.20
2009,06,02,12,48,27.30
2009,06,02,12,49,27.30
2009,06,02,12,50,27.40
2009,06,02,12,51,27.50
2009,06,02,12,52,27.60
2009,06,02,12,53,27.60
2009,06,02,12,54,27.70
2009,06,02,12,55,27.70
2009,06,02,12,56,27.70
2009,06,02,12,57,27.70
2009,06,02,12,58,27.80
2009,06,02,12,59,27.80
2009,06,02,13,00,27.90
2009,06,02,13,01,27.80
2009,06,02,13,02,27.80
2009,06,02,13,03,27.70
2009,06,02,13,04,27.60
2009,06,02,13,05,27.60
2009,06,02,13,06,27.60
2009,06,02,13,07,27.70
2009,06,02,13,08,27.70
2009,06,02,13,09,27.80
2009,06,02,13,10,27.90
2009,06,02,13,11,28.00
2009,06,02,13,12,28.20
2009,06,02,13,13,28.20
2009,06,02,13,14,28.30
2009,06,02,13,15,28.40
2009,06,02,13,16,28.50
2009,06,02,13,17,28.30
2009,06,02,13,18,27.80
2009,06,02,13,19,27.20
2009,06,02,13,20,26.60
2009,06,02,13,21,26.40
2009,06,02,13,22,26.40
2009,06,02,13,23,26.60
2009,06,02,13,24,26.70
2009,06,02,13,25,26.90
2009,06,02,13,26,27.10
2009,06,02,13,27,27.30
2009,06,02,13,28,27.50
2009,06,02,13,29,27.70
2009,06,02,13,30,27.70
2009,06,02,13,31,27.70
2009,06,02,13,32,27.10
2009,06,02,13,33,26.30
2009,06,02,13,34,25.30
2009,06,02,13,35,24.40
2009,06,02,13,36,23.80
2009,06,02,13,37,23.50
2009,06,02,13,38,23.30
2009,06,02,13,39,23.00
2009,06,02,13,40,22.80
2009,06,02,13,41,22.50
2009,06,02,13,42,22.10
2009,06,02,13,43,21.90
2009,06,02,13,44,21.70
2009,06,02,13,45,21.60
2009,06,02,13,46,21.70
2009,06,02,13,47,22.10
2009,06,02,13,48,22.40
2009,06,02,13,49,22.70
2009,06,02,13,50,23.00
2009,06,02,13,51,23.40
2009,06,02,13,52,23.80
2009,06,02,13,53,24.20
2009,06,02,13,54,24.60
2009,06,02,13,55,24.90
2009,06,02,13,56,25.20
2009,06,02,13,57,25.50
2009,06,02,13,58,25.90
2009,06,02,13,59,26.30
2009,06,02,14,00,26.60
2009,06,02,14,01,26.80
2009,06,02,14,02,27.00
2009,06,02,14,03,27.30
2009,06,02,14,04,27.30
2009,06,02,14,05,27.00
2009,06,02,14,06,26.80
2009,06,02,14,07,26.50
2009,06,02,14,08,26.10
2009,06,02,14,09,25.60
2009,06,02,14,10,25.10
2009,06,02,14,11,24.80
2009,06,02,14,12,24.50
2009,06,02,14,13,24.10
2009,06,02,14,14,23.90
2009,06,02,14,15,23.90
2009,06,02,14,16,23.90
2009,06,02,14,17,23.80
2009,06,02,14,18,23.70
2009,06,02,14,19,23.70
2009,06,02,14,20,23.50
2009,06,02,14,21,23.30
2009,06,02,14,22,23.40
2009,06,02,14,23,23.50
2009,06,02,14,24,23.40
2009,06,02,14,25,23.40
2009,06,02,14,26,23.30
2009,06,02,14,27,23.20
2009,06,02,14,28,23.20
2009,06,02,14,29,23.40
2009,06,02,14,30,23.60
2009,06,02,14,31,23.80
2009,06,02,14,32,24.00
2009,06,02,14,33,24.30
2009,06,02,14,34,24.60
2009,06,02,14,35,24.80
2009,06,02,14,36,24.90
2009,06,02,14,37,25.00
2009,06,02,14,38,24.90
2009,06,02,14,39,24.90
2009,06,02,14,40,24.90
2009,06,02,14,41,24.80
2009,06,02,14,42,24.90
2009,06,02,14,43,25.00
2009,06,02,14,44,25.30
2009,06,02,14,45,25.60
2009,06,02,14,46,25.80
2009,06,02,14,47,26.10
2009,06,02,14,48,26.20
2009,06,02,14,49,26.50
2009,06,02,14,50,26.60
2009,06,02,14,51,26.80
2009,06,02,14,52,27.00
2009,06,02,14,53,27.20
2009,06,02,14,54,27.30
2009,06,02,14,55,27.30
2009,06,02,14,56,27.30
2009,06,02,14,57,27.20
2009,06,02,14,58,27.20
2009,06,02,14,59,27.20
2009,06,02,15,00,27.20
2009,06,02,15,01,27.30
2009,06,02,15,02,27.40
2009,06,02,15,03,27.50
2009,06,02,15,04,27.70
2009,06,02,15,05,28.00
2009,06,02,15,06,28.10
2009,06,02,15,07,28.40
2009,06,02,15,08,28.50
2009,06,02,15,09,28.70
2009,06,02,15,10,28.80
2009,06,02,15,11,28.90
2009,06,02,15,12,29.10
2009,06,02,15,13,29.30
2009,06,02,15,14,29.40
2009,06,02,15,15,29.60
2009,06,02,15,16,29.80
2009,06,02,15,17,29.80
2009,06,02,15,18,29.90
2009,06,02,15,19,30.00
2009,06,02,15,20,30.10
2009,06,02,15,21,30.00
2009,06,02,15,22,29.60
2009,06,02,15,23,29.20
2009,06,02,15,24,28.80
2009,06,02,15,25,28.40
2009,06,02,15,26,27.80
2009,06,02,15,27,27.20
2009,06,02,15,28,26.70
2009,06,02,15,29,26.20
2009,06,02,15,30,25.60
2009,06,02,15,31,25.20
2009,06,02,15,32,24.90
2009,06,02,15,33,24.90
2009,06,02,15,34,24.70
2009,06,02,15,35,24.70
2009,06,02,15,36,24.70
2009,06,02,15,37,24.80
2009,06,02,15,38,24.90
2009,06,02,15,39,25.20
2009,06,02,15,40,25.40
2009,06,02,15,41,25.70
2009,06,02,15,42,25.90
2009,06,02,15,43,26.10
2009,06,02,15,44,26.40
2009,06,02,15,45,26.70
2009,06,02,15,46,27.00
2009,06,02,15,47,27.30
2009,06,02,15,48,27.40
2009,06,02,15,49,27.60
2009,06,02,15,50,27.90
2009,06,02,15,51,28.00
2009,06,02,15,52,28.10
2009,06,02,15,53,28.20
2009,06,02,15,54,28.30
2009,06,02,15,55,28.40
2009,06,02,15,56,28.40
2009,06,02,15,57,28.60
2009,06,02,15,58,28.70
2009,06,02,15,59,28.70
2009,06,02,16,00,28.70
2009,06,02,16,01,28.60
2009,06,02,16,02,28.50
2009,06,02,16,03,28.40
2009,06,02,16,04,28.50
2009,06,02,16,05,28.60
2009,06,02,16,06,28.70
2009,06,02,16,07,28.80
2009,06,02,16,08,28.90
2009,06,02,16,09,28.90
2009,06,02,16,10,28.90
2009,06,02,16,11,28.90
2009,06,02,16,12,29.00
2009,06,02,16,13,29.10
2009,06,02,16,14,29.10
2009,06,02,16,15,29.10
2009,06,02,16,16,29.10
2009,06,02,16,17,29.20
2009,06,02,16,18,29.10
2009,06,02,16,19,29.00
2009,06,02,16,20,28.90
2009,06,02,16,21,28.70
2009,06,02,16,22,28.40
2009,06,02,16,23,28.30
2009,06,02,16,24,28.20
2009,06,02,16,25,28.30
2009,06,02,16,26,28.40
2009,06,02,16,27,28.50
2009,06,02,16,28,28.60
2009,06,02,16,29,28.80
2009,06,02,16,30,28.90
2009,06,02,16,31,29.10
2009,06,02,16,32,29.30
2009,06,02,16,33,29.40
2009,06,02,16,34,29.50
2009,06,02,16,35,29.60
2009,06,02,16,36,29.60
2009,06,02,16,37,29.70
2009,06,02,16,38,29.70
2009,06,02,16,39,29.80
2009,06,02,16,40,29.80
2009,06,02,16,41,29.90
2009,06,02,16,42,29.90
2009,06,02,16,43,30.00
2009,06,02,16,44,30.10
2009,06,02,16,45,30.10
2009,06,02,16,46,30.20
2009,06,02,16,47,30.20
2009,06,02,16,48,30.30
2009,06,02,16,49,30.40
2009,06,02,16,50,30.40
2009,06,02,16,51,30.20
2009,06,02,16,52,29.90
2009,06,02,16,53,29.30
2009,06,02,16,54,28.80
2009,06,02,16,55,28.00
2009,06,02,16,56,26.90
2009,06,02,16,57,25.90
2009,06,02,16,58,25.20
2009,06,02,16,59,24.40
2009,06,02,17,00,23.70
2009,06,02,17,01,23.20
2009,06,02,17,02,22.80
2009,06,02,17,03,22.50
2009,06,02,17,04,22.40
2009,06,02,17,05,22.30
2009,06,02,17,06,22.30
2009,06,02,17,07,22.30
2009,06,02,17,08,22.40
2009,06,02,17,09,22.40
2009,06,02,17,10,22.50
2009,06,02,17,11,22.60
2009,06,02,17,12,22.70
2009,06,02,17,13,22.90
2009,06,02,17,14,23.10
2009,06,02,17,15,23.20
2009,06,02,17,16,23.30
2009,06,02,17,17,23.30
2009,06,02,17,18,23.30
2009,06,02,17,19,23.30